Sand Springs William R. Pogue, OK

9:47 AM CDT on October 21, 2017 (GMT -0500)
Sand Springs William R. Pogue

Weather History for KOWP - March, 2014

Change the Weather History Date:

Thursday, March 27, 2014

  Actual Average (KTUL) Record (KTUL)
Temperature  
Mean Temperature 68 °F -  
Max Temperature 83 °F 66 °F 88 °F (1956)
Min Temperature 54 °F 43 °F 13 °F (1913)
Cooling Degree Days 4    
Growing Degree Days 18 (Base 50)    
Moisture  
Dew Point 45 °F    
Average Humidity 54    
Maximum Humidity 84    
Minimum Humidity 12    
Precipitation  
Precipitation 0.00 in - - ()
Sea Level Pressure  
Sea Level Pressure 29.65 in    
Wind  
Wind Speed 14 mph (SSW)    
Max Wind Speed 23 mph    
Max Gust Speed 38 mph    
Visibility 10 miles    
Events      
Averages and records for this station are not official NWS values.
T = Trace of Precipitation, MM = Missing Value Source: NWS Daily Summary

Daily Weather History Graph

Daily Weather History Graph

Search for Another Location

Airport or City:

Trip Planner

Search our weather history database for the weather conditions in past years. The results will help you decide how hot, cold, wet, or windy it might be!

Date:

Astronomy

Mar. 27, 2014 Rise Set
Actual Time 7:17 AM CDT 7:42 PM CDT
Civil Twilight 6:52 AM CDT 8:08 PM CDT
Nautical Twilight 6:22 AM CDT 8:38 PM CDT
Astronomical Twilight 5:51 AM CDT 9:09 PM CDT
Moon 5:04 AM CDT (3/27) 4:36 PM CDT (3/27)
Length of Visible Light 13h 15m
Length of Day
12h 24m
Waning Crescent, 13% of the Moon is Illuminated
Mar 27
Waning Crescent
Mar 30
New
Apr 7
First Quarter
Apr 15
Full
Apr 22
Last Quarter

Hourly Weather History & Observations

Time (CDT) Temp. Dew Point Humidity Pressure Visibility Wind Dir Wind Speed Gust Speed Precip Events Conditions
12:15 AM 54.5 °F 41.4 °F 61% 29.76 in 10.0 mi South 13.8 mph 29.9 mph N/A   Overcast
12:35 AM 54.7 °F 42.1 °F 62% 29.75 in 10.0 mi South 18.4 mph 26.5 mph N/A   Overcast
12:55 AM 55.0 °F 42.8 °F 63% 29.74 in 10.0 mi South 15.0 mph 23.0 mph N/A   Overcast
1:15 AM 55.4 °F 43.5 °F 64% 29.73 in 10.0 mi South 15.0 mph 19.6 mph N/A   Overcast
1:35 AM 56.3 °F 44.6 °F 65% 29.73 in 10.0 mi South 15.0 mph 24.2 mph N/A   Overcast
1:55 AM 56.8 °F 45.1 °F 65% 29.73 in 10.0 mi South 15.0 mph 25.3 mph N/A   Overcast
2:15 AM 56.5 °F 45.3 °F 66% 29.72 in 10.0 mi South 11.5 mph 23.0 mph N/A   Overcast
2:35 AM 56.8 °F 45.9 °F 67% 29.72 in 10.0 mi South 15.0 mph 23.0 mph N/A   Overcast
2:55 AM 56.8 °F 46.4 °F 68% 29.71 in 10.0 mi South 16.1 mph 20.7 mph N/A   Overcast
3:15 AM 56.7 °F 46.8 °F 69% 29.71 in 10.0 mi South 15.0 mph 26.5 mph N/A   Overcast
3:35 AM 56.7 °F 47.3 °F 71% 29.70 in 10.0 mi South 17.3 mph 27.6 mph N/A   Overcast
3:55 AM 56.7 °F 47.3 °F 71% 29.69 in 10.0 mi South 16.1 mph 26.5 mph N/A   Overcast
4:15 AM 56.7 °F 47.7 °F 72% 29.68 in 10.0 mi South 17.3 mph 24.2 mph N/A   Overcast
4:35 AM 56.7 °F 48.2 °F 73% 29.67 in 10.0 mi South 15.0 mph 28.8 mph N/A   Overcast
4:55 AM 56.8 °F 48.7 °F 74% 29.67 in 10.0 mi South 15.0 mph 26.5 mph N/A   Overcast
5:15 AM 57.2 °F 49.1 °F 74% 29.67 in 10.0 mi South 17.3 mph 28.8 mph N/A   Overcast
5:35 AM 57.2 °F 49.5 °F 75% 29.66 in 10.0 mi South 16.1 mph 24.2 mph N/A   Overcast
5:55 AM 57.2 °F 50.0 °F 77% 29.66 in 10.0 mi South 11.5 mph 24.2 mph N/A   Overcast
6:15 AM 57.0 °F 50.0 °F 77% 29.66 in 10.0 mi South 13.8 mph 19.6 mph N/A   Overcast
6:35 AM 57.2 °F 50.4 °F 78% 29.65 in 10.0 mi South 11.5 mph 23.0 mph N/A   Overcast
6:55 AM 57.2 °F 50.9 °F 79% 29.66 in 10.0 mi South 11.5 mph 18.4 mph N/A   Overcast
7:15 AM 57.2 °F 51.3 °F 81% 29.65 in 10.0 mi South 13.8 mph 23.0 mph N/A   Overcast
7:35 AM 57.2 °F 51.6 °F 82% 29.66 in 10.0 mi South 10.4 mph 23.0 mph N/A   Overcast
7:55 AM 57.2 °F 52.0 °F 83% 29.65 in 10.0 mi South 10.4 mph 21.9 mph N/A   Overcast
8:15 AM 57.4 °F 52.3 °F 83% 29.66 in 10.0 mi South 12.7 mph 21.9 mph N/A   Overcast
8:35 AM 57.9 °F 52.9 °F 83% 29.67 in 10.0 mi South 11.5 mph 21.9 mph N/A   Overcast
8:55 AM 58.1 °F 53.2 °F 84% 29.66 in 10.0 mi South 13.8 mph 23.0 mph N/A   Overcast
9:15 AM 58.5 °F 53.6 °F 84% 29.65 in 10.0 mi South 12.7 mph 19.6 mph N/A   Overcast
9:35 AM 59.4 °F 53.8 °F 82% 29.64 in 10.0 mi South 12.7 mph 25.3 mph N/A   Overcast
9:55 AM 60.6 °F 54.1 °F 79% 29.64 in 10.0 mi South 15.0 mph 26.5 mph N/A   Overcast
10:15 AM 61.7 °F 54.5 °F 77% 29.63 in 10.0 mi South 19.6 mph 29.9 mph N/A   Overcast
10:35 AM 63.0 °F 54.7 °F 74% 29.62 in 10.0 mi South 17.3 mph 27.6 mph N/A   Overcast
10:55 AM 63.0 °F 54.7 °F 74% 29.61 in 10.0 mi SSW 13.8 mph 25.3 mph N/A   Overcast
11:15 AM 64.2 °F 55.2 °F 73% 29.60 in 10.0 mi SSW 18.4 mph 32.2 mph N/A   Overcast
11:35 AM 65.7 °F 55.4 °F 69% 29.58 in 10.0 mi South 20.7 mph 35.7 mph N/A   Overcast
11:55 AM 66.6 °F 55.8 °F 68% 29.57 in 10.0 mi South 23.0 mph 32.2 mph N/A   Overcast
12:15 PM 68.2 °F 55.9 °F 65% 29.58 in 10.0 mi SSW 20.7 mph 33.4 mph N/A   Overcast
12:35 PM 71.1 °F 56.1 °F 59% 29.58 in 10.0 mi SSW 16.1 mph 29.9 mph N/A   Mostly Cloudy
12:55 PM 72.1 °F 55.8 °F 56% 29.57 in 10.0 mi South 20.7 mph 32.2 mph N/A   Mostly Cloudy
1:15 PM 73.4 °F 55.0 °F 52% 29.57 in 10.0 mi SSW 13.8 mph 29.9 mph N/A   Mostly Cloudy
1:35 PM 75.2 °F 54.9 °F 49% 29.56 in 10.0 mi SSW 19.6 mph 31.1 mph N/A   Mostly Cloudy
1:55 PM 76.5 °F 54.9 °F 47% 29.55 in 10.0 mi South 15.0 mph 24.2 mph N/A   Mostly Cloudy
2:15 PM 78.4 °F 51.6 °F 39% 29.54 in 10.0 mi SSW 18.4 mph 33.4 mph N/A   Scattered Clouds
2:35 PM 79.3 °F 50.9 °F 37% 29.54 in 10.0 mi SSW 16.1 mph 34.5 mph N/A   Scattered Clouds
2:55 PM 79.9 °F 49.6 °F 35% 29.53 in 10.0 mi SW 8.1 mph 29.9 mph N/A   Scattered Clouds
3:15 PM 82.4 °F 41.0 °F 23% 29.54 in 10.0 mi SW 19.6 mph 33.4 mph N/A   Scattered Clouds
3:35 PM 83.7 °F 34.9 °F 17% 29.54 in 10.0 mi WSW 18.4 mph 38.0 mph N/A   Scattered Clouds
3:55 PM 82.4 °F 34.0 °F 18% 29.54 in 10.0 mi WSW 17.3 mph 33.4 mph N/A   Scattered Clouds
4:15 PM 82.9 °F 30.4 °F 15% 29.54 in 10.0 mi WSW 18.4 mph 31.1 mph N/A   Clear
4:35 PM 83.3 °F 26.4 °F 13% 29.55 in 10.0 mi WSW 15.0 mph 33.4 mph N/A   Clear
4:55 PM 82.6 °F 26.1 °F 13% 29.55 in 10.0 mi WSW 16.1 mph 32.2 mph N/A   Clear
5:15 PM 82.8 °F 25.5 °F 12% 29.55 in 10.0 mi WSW 15.0 mph 27.6 mph N/A   Clear
5:35 PM 82.6 °F 25.5 °F 12% 29.56 in 10.0 mi WSW 13.8 mph 26.5 mph N/A   Scattered Clouds
5:55 PM 81.9 °F 24.4 °F 12% 29.56 in 10.0 mi WSW 15.0 mph 26.5 mph N/A   Scattered Clouds
6:15 PM 81.1 °F 24.1 °F 12% 29.57 in 10.0 mi WSW 15.0 mph 27.6 mph N/A   Scattered Clouds
6:35 PM 78.8 °F 36.0 °F 21% 29.59 in 10.0 mi WNW 11.5 mph 21.9 mph N/A   Scattered Clouds
6:55 PM 76.8 °F 39.6 °F 26% 29.61 in 10.0 mi NW 13.8 mph 23.0 mph N/A   Clear
7:15 PM 75.2 °F 40.3 °F 28% 29.63 in 10.0 mi WNW 11.5 mph 20.7 mph N/A   Clear
7:35 PM 73.4 °F 40.5 °F 30% 29.65 in 10.0 mi WNW 9.2 mph 17.3 mph N/A   Clear
7:55 PM 71.8 °F 41.2 °F 33% 29.67 in 10.0 mi NW 10.4 mph 16.1 mph N/A   Clear
8:15 PM 70.5 °F 41.0 °F 34% 29.69 in 10.0 mi NNW 8.1 mph - N/A   Clear
8:35 PM 68.9 °F 41.5 °F 37% 29.70 in 10.0 mi NNW 5.8 mph - N/A   Clear
8:55 PM 67.8 °F 41.4 °F 38% 29.71 in 10.0 mi NW 3.5 mph - N/A   Clear
9:15 PM 67.1 °F 41.0 °F 39% 29.72 in 10.0 mi NNW 5.8 mph - N/A   Clear
9:35 PM 65.8 °F 40.8 °F 40% 29.74 in 10.0 mi NNW 3.5 mph - N/A   Clear
9:55 PM 65.5 °F 40.1 °F 39% 29.76 in 10.0 mi North 9.2 mph - N/A   Clear
10:15 PM 63.9 °F 38.8 °F 40% 29.76 in 10.0 mi North 8.1 mph - N/A   Clear
10:35 PM 63.0 °F 38.3 °F 40% 29.77 in 10.0 mi North 6.9 mph - N/A   Clear
10:55 PM 61.9 °F 38.3 °F 42% 29.78 in 10.0 mi North 10.4 mph - N/A   Clear
11:15 PM 59.9 °F 38.5 °F 45% 29.79 in 10.0 mi North 10.4 mph - N/A   Clear
11:35 PM 58.5 °F 38.3 °F 47% 29.80 in 10.0 mi NNE 6.9 mph - N/A   Clear
11:55 PM 57.6 °F 36.9 °F 46% 29.82 in 10.0 mi North 10.4 mph 19.6 mph N/A   Clear